This is the latest recevied weather packets stored in our database for station/object W2GRK-15. If no packets are shown the sender has not sent any weather packets the latest 10 day(s).
| Time | Temp. | Humidity | Pressure | Rain* | Wind** | Luminosity | Snow |
|---|---|---|---|---|---|---|---|
| 1777551688 | 8.89° C | 99% | 1008.4 hPa | 0 mm | - | 67 W/m² | - |
| 1777550722 | 8.89° C | 99% | 1008.6 hPa | 0 mm | - | 36 W/m² | - |
| 1777550388 | 9.44° C | 99% | 1008.7 hPa | 0 mm | - | 38 W/m² | - |
| 1777550210 | 8.89° C | 99% | 1008.6 hPa | 0 mm | - | 35 W/m² | - |
| 1777550082 | 8.89° C | 99% | 1008.6 hPa | 0 mm | - | 34 W/m² | - |
| 1777549708 | 8.89° C | 99% | 1008.5 hPa | 0 mm | - | 26 W/m² | - |
| 1777549643 | 8.89° C | 99% | 1008.7 hPa | 0 mm | - | 21 W/m² | - |
| 1777549466 | 8.89° C | 99% | 1008.6 hPa | 0 mm | - | 16 W/m² | - |
| 1777549225 | 8.89° C | 99% | 1008.6 hPa | 0 mm | - | 23 W/m² | - |
| 1777549096 | 8.89° C | 99% | 1008.8 hPa | 0 mm | - | 24 W/m² | - |
| 1777548846 | 8.89° C | 99% | 1008.8 hPa | 0 mm | - | 33 W/m² | - |
| 1777548762 | 8.89° C | 99% | 1008.8 hPa | 0 mm | - | 33 W/m² | - |
| 1777548343 | 8.89° C | 99% | 1009.1 hPa | 0 mm | - | 26 W/m² | - |
| 1777548259 | 8.89° C | 99% | 1009 hPa | 0 mm | - | 23 W/m² | - |
| 1777548210 | 8.89° C | 99% | 1008.9 hPa | 0 mm | - | 22 W/m² | - |
| 1777548082 | 8.89° C | 99% | 1008.8 hPa | 0 mm | - | 20 W/m² | - |
| 1777548017 | 8.89° C | 99% | 1009 hPa | 0 mm | - | 20 W/m² | - |
| 1777547776 | 8.89° C | 99% | 1008.9 hPa | 0 mm | - | 16 W/m² | - |
| 1777546826 | 8.89° C | 99% | 1008.7 hPa | 0 mm | - | 9 W/m² | - |
| 1777546648 | 8.89° C | 99% | 1008.6 hPa | 0 mm | - | 11 W/m² | - |
| 1777546471 | 8.89° C | 99% | 1008.7 hPa | 0 mm | - | 12 W/m² | - |
| 1777546342 | 8.89° C | 99% | 1008.6 hPa | 0 mm | - | 13 W/m² | - |
| 1777546229 | 8.89° C | 99% | 1008.6 hPa | 0 mm | - | 13 W/m² | - |
| 1777546008 | 8.89° C | 99% | 1008.6 hPa | 0 mm | - | 12 W/m² | - |
| 1777545746 | 8.89° C | 99% | 1008.4 hPa | 0 mm | - | 11 W/m² | - |
* Rain latest hour (hover to see other rain measurements)
** Current wind speed in m/s (hover to see current wind gust speed)